Home   Weather   Havana   Past weeks

Flag for Cuba Past Weather in Havana, Cuba — Yesterday and Last 2 Weeks

Now
73 °F

Passing clouds.


Feels Like: 73 °F
Forecast: 71 / 85 °F
Wind: 9 mph from Northeast

Location: Aeropuerto Jose Marti - Rancho-Boyeros - Habana

Current Time: Dec 10, 2016 at 7:29:57 pm

Latest Report: Dec 10, 2016 at 6:55 pm


Visibility: 5 mi

Pressure: 30.12 "Hg

Humidity: 83%

Dew Point: 68 °F

Location of HavanaLocation

Past Weather in Havana — Graph

°F

Havana Temperature Yesterday

Maximum temperature yesterday: 75 °F (at 2:55 pm)
Minimum temperature yesterday: 70 °F (at 12:55 am)
Average temperature yesterday: 72 °F

High & Low Weather Summary for the Past Weeks

 TemperatureHumidityPressure
High90 °F (Dec 7, 12:55 pm)94% (Nov 27, 1:55 am)30.18 "Hg (Nov 27, 1:55 am)
Low59 °F (Nov 28, 4:55 am)40% (Nov 28, 2:55 pm)29.86 "Hg (Nov 28, 3:55 pm)
Average75 °F77%30.01 "Hg
* Reported Nov 25 5:55 pm — Dec 10 5:55 pm, Havana, Weather by CustomWeather, © 2016

Note: Actual official high and low records may vary slightly from our data, if they occured in-between our weather recording intervals... More about our weather records

Advertising

Havana Weather History for the Previous 24 Hours

Scroll right to see more
 ConditionsComfort  
Time TempWeatherWind HumidityBarometerVisibility
5:55 pm
Sat, Dec 10
72 °FPassing clouds.9 mph88%30.09 "Hg5 mi
4:55 pm72 °FLight rain. Broken clouds.12 mph78%30.12 "Hg5 mi
3:55 pm73 °FPartly sunny.14 mph83%30.09 "Hg6 mi
2:55 pm81 °FBroken clouds.12 mph66%30.09 "Hg6 mi
1:55 pm77 °FPartly sunny.12 mph79%30.09 "Hg6 mi
12:55 pm75 °FBroken clouds.10 mph78%30.12 "Hg6 mi
11:55 am75 °FBroken clouds.12 mph78%30.15 "Hg6 mi
10:55 am75 °FDrizzle. Broken clouds.8 mph78%30.18 "Hg5 mi
9:55 am75 °FBroken clouds.7 mph78%30.18 "Hg6 mi
8:55 am73 °FBroken clouds.6 mph83%30.18 "Hg6 mi
7:55 am72 °FPartly sunny.7 mph88%30.18 "Hg6 mi
6:55 am72 °FPassing clouds.7 mph88%30.15 "Hg6 mi
5:55 am70 °FPassing clouds.5 mph88%30.15 "Hg6 mi
4:55 am72 °FPassing clouds.5 mph88%30.12 "Hg6 mi
3:55 am72 °FPassing clouds.7 mph83%30.12 "Hg6 mi
2:55 am72 °FPassing clouds.5 mph83%30.12 "Hg6 mi
1:55 am72 °FPassing clouds.3 mph83%30.12 "Hg6 mi
12:55 am73 °FPassing clouds.6 mph78%30.12 "Hg6 mi
11:55 pm
Fri, Dec 9
72 °FPassing clouds.7 mph83%30.15 "Hg6 mi
10:55 pm72 °FPassing clouds.5 mph83%30.15 "Hg6 mi
9:55 pm72 °FPassing clouds.6 mph83%30.15 "Hg6 mi
8:55 pm72 °FPartly cloudy.5 mph83%30.12 "Hg6 mi
7:55 pm72 °FPartly cloudy.10 mph83%30.12 "Hg6 mi
Weather by CustomWeather, © 2016

See weather overviewHow to use our weather pages